• Processing (Info)

  • MPEC 2016-O374: 2013 AR183

    The following Minor Planet Electronic Circular may be linked-to from your own Web pages, but must not otherwise be redistributed electronically.

    A form allowing access to any MPEC is at the bottom of this page.


    Read MPEC 2016-O373 Read MPEC 2016-O375


    M.P.E.C. 2016-O374                               Issued 2016 July 26, 23:39 UT
    
         The Minor Planet Electronic Circulars contain information on unusual
             minor planets and routine data on comets.  They are published
        on behalf of Division F of the International Astronomical Union by the
              Minor Planet Center, Smithsonian Astrophysical Observatory,
                              Cambridge, MA 02138, U.S.A.
    
                 Prepared using the Tamkin Foundation Computer Network
    
                                  MPC@CFA.HARVARD.EDU
                URL https://www.minorplanetcenter.net/    ISSN 1523-6714
    
                                      2013 AR183
    
    Observations:
         K13AI3R* C2013 01 10.52970 09 06 37.553+12 46 59.49         22.7 wLEO374F51
         K13AI3R  C2013 01 10.54354 09 06 37.503+12 46 59.31         22.5 wLEO374F51
         K13AI3R  C2013 01 10.55737 09 06 37.428+12 46 59.62         22.5 wLEO374F51
         K13AI3R  C2013 03 03.25761 09 02 56.008+13 04 32.48         22.5 wLEO374F51
         K13AI3R  C2013 03 03.27192 09 02 55.959+13 04 32.64         22.5 wLEO374F51
         K13AI3R  C2013 03 03.28630 09 02 55.893+13 04 33.28         22.5 wLEO374F51
         K13AI3R  C2013 03 03.30066 09 02 55.839+13 04 33.21         22.8 wLEO374F51
         K13AI3R  C2014 01 05.42978 09 12 15.832+12 30 40.15         22.4 wLEO374F51
         K13AI3R  C2014 01 05.46008 09 12 15.728+12 30 40.83         22.6 wLEO374F51
         K13AI3R  C2014 01 05.47526 09 12 15.667+12 30 41.04         22.6 wLEO374F51
         K13AI3R  C2014 02 20.33220 09 09 01.116+12 45 51.04         22.0 iLEO374F51
         K13AI3R  C2014 02 20.35799 09 09 01.009+12 45 51.90         21.6 iLEO374F51
         K13AI3R  C2014 03 20.26942 09 07 19.503+12 55 12.35         22.5 wLEO374F51
         K13AI3R  C2014 03 24.26353 09 07 08.502+12 56 20.70         22.3 wLEO374F51
    
    Observer details:
    F51 Pan-STARRS 1, Haleakala.  Observers B. Gibson, T. Goggia, N. Primak,
        A. Schultz, M. Willman.  Measurers Y.-T. Chen, W. Fraser, M. Holman,
        P. Lacerda, M. Lackner, H.-W. Lin, M. Payne, P. Protopapas, K. Chambers,
        S. Chastel, L. Denneau, H. Flewelling, M. Huber, R. Jedicke, E. Lilly,
        E. Magnier, M. Micheli, P. Veres, R. Wainscoat, C. Waters, R. Weryk.
        1.8-m Ritchey-Chretien + CCD.
    
    Orbital elements:
    2013 AR183
    Epoch 2016 July 31.0 TT = JDT 2457600.5                 MPC
    M  24.62854              (2000.0)            P               Q
    n   0.00161029     Peri.  261.84452     +0.38974307     -0.92038883
    a  72.0884850      Node   165.09856     +0.88568030     +0.36527362
    e   0.5066565      Incl.    7.00920     +0.25233064     +0.13949759
    P 612              H    5.8           G   0.15           U   3
    Residuals in seconds of arc
    130110 F51  0.1+  0.3+    130303 F51  0.1-  0.2+    140220 F51  0.1+  0.2-
    130110 F51  0.2+  0.1-    130303 F51  0.1-  0.2-    140220 F51  0.1+  0.1+
    130110 F51  0.1-  0.0     140105 F51  0.1-  0.1-    140320 F51  0.0   0.2+
    130303 F51  0.0   0.1-    140105 F51  0.0   0.1+    140324 F51  0.1-  0.1-
    130303 F51  0.1+  0.2-    140105 F51  0.0   0.1+
    
    Ephemeris:
    2013 AR183               a,e,i = 72.09, 0.51, 7                  q = 35.564
    Date    TT    R. A. (2000) Decl.     Delta      r     Elong.  Phase     V
    2016 06 26    09 18 54.9 +12 28 12  47.0605 46.3313    43.7     0.9    22.6
    ...
    2016 07 11    09 20 05.4 +12 23 39  47.2279 46.3483    29.8     0.6    22.6
    ...
    2016 07 19    09 20 46.6 +12 20 50  47.2954 46.3574    22.4     0.5    22.6
    ...
    2016 07 25    09 21 18.7 +12 18 35  47.3353 46.3642    16.9     0.4    22.6
    2016 07 26    09 21 24.1 +12 18 12  47.3410 46.3653    15.9     0.3    22.6
    2016 07 27    09 21 29.6 +12 17 48  47.3465 46.3664    15.0     0.3    22.6
    ...
    2016 08 02    09 22 02.6 +12 15 25  47.3735 46.3732     9.6     0.2    22.6
    ...
    2016 08 10    09 22 47.1 +12 12 08  47.3941 46.3823     3.4     0.1    22.5
    ...
    2016 08 25    09 24 10.1 +12 05 46  47.3846 46.3993    12.8     0.3    22.6
    
    A. U. Tomatic                (C) Copyright 2016 MPC           M.P.E.C. 2016-O374
    

    Read MPEC 2016-O373 Read MPEC 2016-O375


    MPEC number:

    Enter an MPEC number in one of the following forms:

    • 1997-B01 (the full form)
    • J97B01 (the packed version of the full form)
    • B01 (the abbreviated form)